| time (UTC) | temp F | wind direction | speed knots | gust knots | rain 1hr in | rain 24hr in | rain mn in | humidity % | barometer mb |
| 20260503185715 | 66 | 236 | 9.6 | 19.1 | 0.00 | 0.00 | 0.00 | 51 | 1003.8 |
| 20260503185215 | 65 | 180 | 7.8 | 18.2 | 0.00 | 0.00 | 0.00 | 53 | 1003.8 |
| 20260503184946 | 65 | 187 | 9.6 | 23.5 | 0.00 | 0.00 | 0.00 | 52 | 1003.7 |
| 20260503184448 | 65 | 232 | 9.6 | 23.5 | 0.00 | 0.00 | 0.00 | 52 | 1003.8 |
| 20260503183714 | 65 | 198 | 8.7 | 19.1 | 0.00 | 0.00 | 0.00 | 55 | 1003.8 |
| 20260503183213 | 65 | 212 | 8.7 | 20.0 | 0.00 | 0.00 | 0.00 | 54 | 1004.0 |
| 20260503182714 | 65 | 228 | 9.6 | 20.9 | 0.00 | 0.00 | 0.00 | 55 | 1004.1 |
| 20260503182213 | 64 | 193 | 9.6 | 20.9 | 0.00 | 0.00 | 0.00 | 58 | 1004.4 |
| 20260503181947 | 64 | 271 | 8.7 | 20.0 | 0.00 | 0.00 | 0.00 | 57 | 1004.4 |
| 20260503181445 | 64 | 215 | 9.6 | 20.9 | 0.00 | 0.00 | 0.00 | 58 | 1004.5 |
| 20260503180715 | 63 | 209 | 9.6 | 20.9 | 0.00 | 0.00 | 0.00 | 57 | 1004.6 |
| 20260503180208 | 64 | 227 | 10.4 | 22.6 | 0.00 | 0.00 | 0.00 | 56 | 1004.6 |
| 20260503175707 | 63 | 194 | 10.4 | 24.3 | 0.00 | 0.00 | 0.00 | 59 | 1004.7 |
| 20260503175212 | 63 | 213 | 8.7 | 24.3 | 0.00 | 0.00 | 0.00 | 60 | 1004.7 |
| 20260503174708 | 63 | 225 | 9.6 | 24.3 | 0.00 | 0.00 | 0.00 | 59 | 1004.9 |
| 20260503174207 | 63 | 196 | 11.3 | 24.3 | 0.00 | 0.00 | 0.00 | 59 | 1005.0 |
| 20260503173713 | 62 | 211 | 11.3 | 21.7 | 0.00 | 0.00 | 0.00 | 60 | 1005.1 |
| 20260503173205 | 62 | 223 | 9.6 | 21.7 | 0.00 | 0.00 | 0.00 | 60 | 1005.2 |
| 20260503172707 | 62 | 222 | 8.7 | 21.7 | 0.00 | 0.00 | 0.00 | 61 | 1005.3 |
| 20260503172208 | 61 | 219 | 10.4 | 21.7 | 0.00 | 0.00 | 0.00 | 61 | 1005.4 |
| 20260503171705 | 62 | 111 | 11.3 | 22.6 | 0.00 | 0.00 | 0.00 | 60 | 1005.5 |
| 20260503171205 | 62 | 223 | 10.4 | 22.6 | 0.00 | 0.00 | 0.00 | 59 | 1005.5 |
| 20260503170705 | 62 | 224 | 8.7 | 19.1 | 0.00 | 0.00 | 0.00 | 60 | 1005.7 |
| 20260503170206 | 62 | 183 | 9.6 | 20.9 | 0.00 | 0.00 | 0.00 | 59 | 1005.6 |
| 20260503150648 | 60 | 239 | 4.3 | 11.3 | 0.00 | 0.00 | 0.00 | 57 | 1006.5 |
| 20260503150146 | 60 | 225 | 5.2 | 13.0 | 0.00 | 0.00 | 0.00 | 57 | 1006.6 |
| 20260503140144 | 56 | 209 | 6.1 | 13.0 | 0.00 | 0.00 | 0.00 | 61 | 1007.2 |
| 20260503131140 | 53 | 216 | 3.5 | 9.6 | 0.00 | 0.00 | 0.00 | 65 | 1007.5 |
| 20260503130635 | 53 | 207 | 2.6 | 8.7 | 0.00 | 0.00 | 0.00 | 66 | 1007.6 |
| 20260503130409 | 53 | 237 | 3.5 | 8.7 | 0.00 | 0.00 | 0.00 | 66 | 1007.7 |
| 20260503120127 | 51 | 196 | 2.6 | 7.0 | 0.00 | 0.00 | 0.00 | 67 | 1007.7 |
| 20260503110622 | 50 | 171 | 6.1 | 8.7 | 0.00 | 0.00 | 0.00 | 64 | 1007.9 |
| 20260503110616 | 50 | 265 | 5.2 | 8.7 | 0.00 | 0.00 | 0.00 | 63 | 1008.1 |
| 20260503100113 | 51 | 219 | 2.6 | 7.8 | 0.00 | 0.00 | 0.00 | 61 | 1008.5 |
| 20260503081551 | 52 | 209 | 4.3 | 11.3 | 0.00 | 0.00 | 0.00 | 64 | 1009.1 |
| 20260503081044 | 52 | 192 | 4.3 | 8.7 | 0.00 | 0.00 | 0.00 | 64 | 1009.2 |
| 20260503080545 | 51 | 202 | 5.2 | 9.6 | 0.00 | 0.00 | 0.00 | 64 | 1009.2 |
| 20260503072538 | 45 | 193 | 2.6 | 5.2 | 0.00 | 0.00 | 0.00 | 80 | 1009.5 |
| 20260503072038 | 45 | 195 | 2.6 | 5.2 | 0.00 | 0.00 | 0.00 | 80 | 1009.6 |
| 20260503071538 | 45 | 174 | 1.7 | 5.2 | 0.00 | 0.00 | 0.00 | 80 | 1009.8 |
| 20260503071308 | 44 | 132 | 1.7 | 2.6 | 0.00 | 0.00 | 0.00 | 80 | 1009.8 |
| 20260503070534 | 44 | 113 | 1.7 | 2.6 | 0.00 | 0.00 | 0.00 | 80 | 1009.9 |
| 20260503055014 | 43 | 175 | 1.7 | 3.5 | 0.00 | 0.00 | 0.00 | 79 | 1010.5 |
| 20260503054748 | 42 | 171 | 2.6 | 5.2 | 0.00 | 0.00 | 0.00 | 79 | 1010.5 |
| 20260503054010 | 42 | 179 | 3.5 | 5.2 | 0.00 | 0.00 | 0.00 | 80 | 1010.5 |
| 20260503053508 | 42 | 180 | 2.6 | 5.2 | 0.00 | 0.00 | 0.00 | 79 | 1010.6 |
| 20260503053236 | 41 | 178 | 1.7 | 4.3 | 0.00 | 0.00 | 0.00 | 79 | 1010.7 |
| 20260503052507 | 41 | 169 | 0.9 | 4.3 | 0.00 | 0.00 | 0.00 | 79 | 1010.8 |
| 20260503052007 | 41 | 154 | 0.9 | 1.7 | 0.00 | 0.00 | 0.00 | 78 | 1010.8 |
| 20260503051507 | 41 | 154 | 1.7 | 2.6 | 0.00 | 0.00 | 0.00 | 78 | 1010.8 |
| 20260503051235 | 41 | 154 | 1.7 | 2.6 | 0.00 | 0.00 | 0.00 | 78 | 1010.9 |
| 20260503050505 | 41 | 155 | 1.7 | 2.6 | 0.00 | 0.00 | 0.00 | 78 | 1010.9 |
| 20260503050008 | 41 | 155 | 1.7 | 4.3 | 0.00 | 0.00 | 0.00 | 77 | 1010.9 |
| 20260503045734 | 41 | 157 | 1.7 | 4.3 | 0.00 | 0.00 | 0.00 | 77 | 1010.9 |
| 20260503045001 | 41 | 158 | 1.7 | 4.3 | 0.00 | 0.00 | 0.00 | 77 | 1011.0 |
| 20260503044502 | 41 | 160 | 1.7 | 4.3 | 0.00 | 0.00 | 0.00 | 77 | 1011.0 |
| 20260503044235 | 41 | 162 | 1.7 | 4.3 | 0.00 | 0.00 | 0.00 | 76 | 1011.1 |
| 20260503043730 | 41 | 158 | 1.7 | 4.3 | 0.00 | 0.00 | 0.00 | 76 | 1011.2 |
| 20260503042958 | 41 | 154 | 2.6 | 5.2 | 0.00 | 0.00 | 0.00 | 76 | 1011.2 |
| 20260503042730 | 41 | 167 | 2.6 | 5.2 | 0.00 | 0.00 | 0.00 | 75 | 1011.3 |
| 20260503041959 | 42 | 146 | 2.6 | 4.3 | 0.00 | 0.00 | 0.00 | 75 | 1011.3 |
| 20260503041500 | 42 | 157 | 1.7 | 4.3 | 0.00 | 0.00 | 0.00 | 75 | 1011.3 |
| 20260503040958 | 42 | 153 | 1.7 | 4.3 | 0.00 | 0.00 | 0.00 | 74 | 1011.4 |
| 20260503040459 | 42 | 153 | 2.6 | 5.2 | 0.00 | 0.00 | 0.00 | 74 | 1011.4 |
| 20260503035955 | 42 | 159 | 2.6 | 6.1 | 0.00 | 0.00 | 0.00 | 74 | 1011.5 |
| 20260503035454 | 42 | 174 | 2.6 | 6.1 | 0.00 | 0.00 | 0.00 | 73 | 1011.6 |
| 20260503034954 | 42 | 153 | 3.5 | 6.1 | 0.00 | 0.00 | 0.00 | 73 | 1011.7 |
| 20260503034726 | 42 | 149 | 3.5 | 6.1 | 0.00 | 0.00 | 0.00 | 73 | 1011.7 |
| 20260503033956 | 42 | 159 | 3.5 | 6.1 | 0.00 | 0.00 | 0.00 | 72 | 1011.7 |
| 20260503033454 | 42 | 147 | 3.5 | 10.4 | 0.00 | 0.00 | 0.00 | 72 | 1011.7 |
| 20260503032956 | 42 | 155 | 4.3 | 10.4 | 0.00 | 0.00 | 0.00 | 72 | 1011.9 |
| 20260503032723 | 43 | 157 | 4.3 | 9.6 | 0.00 | 0.00 | 0.00 | 71 | 1011.9 |
| 20260503031950 | 43 | 157 | 3.5 | 8.7 | 0.00 | 0.00 | 0.00 | 71 | 1012.0 |
| 20260503031722 | 43 | 153 | 3.5 | 8.7 | 0.00 | 0.00 | 0.00 | 70 | 1012.0 |
| 20260503030951 | 43 | 155 | 4.3 | 7.8 | 0.00 | 0.00 | 0.00 | 70 | 1012.0 |
| 20260503030450 | 43 | 160 | 4.3 | 9.6 | 0.00 | 0.00 | 0.00 | 69 | 1012.1 |
| 20260503025951 | 43 | 178 | 3.5 | 7.8 | 0.00 | 0.00 | 0.00 | 69 | 1012.2 |
| 20260503025446 | 43 | 142 | 4.3 | 9.6 | 0.00 | 0.00 | 0.00 | 69 | 1012.1 |
| 20260503024946 | 44 | 151 | 4.3 | 9.6 | 0.00 | 0.00 | 0.00 | 68 | 1012.2 |
| 20260503024447 | 44 | 156 | 4.3 | 9.6 | 0.00 | 0.00 | 0.00 | 68 | 1012.3 |
| 20260503023946 | 44 | 142 | 5.2 | 10.4 | 0.00 | 0.00 | 0.00 | 68 | 1012.3 |
| 20260503023717 | 44 | 142 | 5.2 | 10.4 | 0.00 | 0.00 | 0.00 | 68 | 1012.3 |
| 20260503022947 | 44 | 159 | 4.3 | 8.7 | 0.00 | 0.00 | 0.00 | 67 | 1012.3 |
| 20260503022446 | 44 | 146 | 4.3 | 9.6 | 0.00 | 0.00 | 0.00 | 67 | 1012.4 |
| 20260503021946 | 44 | 150 | 5.2 | 9.6 | 0.00 | 0.00 | 0.00 | 66 | 1012.4 |
| 20260503021717 | 44 | 149 | 5.2 | 8.7 | 0.00 | 0.00 | 0.00 | 66 | 1012.4 |
| 20260503020946 | 45 | 157 | 5.2 | 10.4 | 0.00 | 0.00 | 0.00 | 65 | 1012.4 |
| 20260503020447 | 45 | 182 | 5.2 | 10.4 | 0.00 | 0.00 | 0.00 | 66 | 1012.4 |
| 20260503015943 | 45 | 146 | 4.3 | 8.7 | 0.00 | 0.00 | 0.00 | 65 | 1012.4 |
| 20260503015442 | 45 | 155 | 4.3 | 7.8 | 0.00 | 0.00 | 0.00 | 64 | 1012.4 |
| 20260503015214 | 46 | 140 | 4.3 | 7.8 | 0.00 | 0.00 | 0.00 | 63 | 1012.4 |
| 20260503014442 | 46 | 149 | 4.3 | 10.4 | 0.00 | 0.00 | 0.00 | 62 | 1012.4 |
| 20260503014214 | 46 | 151 | 5.2 | 11.3 | 0.00 | 0.00 | 0.00 | 62 | 1012.4 |
| 20260503013443 | 46 | 158 | 5.2 | 11.3 | 0.00 | 0.00 | 0.00 | 62 | 1012.4 |
| 20260503012937 | 46 | 152 | 5.2 | 11.3 | 0.00 | 0.00 | 0.00 | 62 | 1012.3 |
| 20260503012433 | 47 | 146 | 5.2 | 9.6 | 0.00 | 0.00 | 0.00 | 62 | 1012.4 |
| 20260503011934 | 47 | 158 | 5.2 | 9.6 | 0.00 | 0.00 | 0.00 | 62 | 1012.3 |
| 20260503011433 | 47 | 157 | 5.2 | 11.3 | 0.00 | 0.00 | 0.00 | 62 | 1012.3 |
| 20260503010928 | 47 | 153 | 5.2 | 11.3 | 0.00 | 0.00 | 0.00 | 61 | 1012.3 |
| 20260503010427 | 48 | 152 | 5.2 | 8.7 | 0.00 | 0.00 | 0.00 | 60 | 1012.3 |
| 20260503005929 | 48 | 161 | 6.1 | 11.3 | 0.00 | 0.00 | 0.00 | 59 | 1012.4 |
| 20260503005428 | 48 | 154 | 6.1 | 11.3 | 0.00 | 0.00 | 0.00 | 59 | 1012.3 |
| 20260503005201 | 49 | 143 | 6.1 | 11.3 | 0.00 | 0.00 | 0.00 | 59 | 1012.3 |
| 20260503004701 | 49 | 133 | 5.2 | 11.3 | 0.00 | 0.00 | 0.00 | 59 | 1012.3 |
| 20260503003929 | 49 | 150 | 4.3 | 9.6 | 0.00 | 0.00 | 0.00 | 60 | 1012.4 |
| 20260503003424 | 50 | 157 | 5.2 | 11.3 | 0.00 | 0.00 | 0.00 | 59 | 1012.3 |
| 20260503002924 | 50 | 161 | 7.0 | 11.3 | 0.00 | 0.00 | 0.00 | 58 | 1012.3 |
| 20260503002424 | 50 | 178 | 6.1 | 12.2 | 0.00 | 0.00 | 0.00 | 57 | 1012.3 |
| 20260503002156 | 51 | 175 | 7.0 | 13.9 | 0.00 | 0.00 | 0.00 | 56 | 1012.3 |
| 20260503001424 | 51 | 157 | 7.8 | 13.9 | 0.00 | 0.00 | 0.00 | 56 | 1012.4 |
| 20260503000923 | 51 | 141 | 7.0 | 13.0 | 0.00 | 0.00 | 0.00 | 58 | 1012.4 |
| 20260503000656 | 51 | 158 | 6.1 | 11.3 | 0.00 | 0.00 | 0.00 | 58 | 1012.5 |
| 20260502235919 | 51 | 131 | 7.0 | 10.4 | 0.00 | 0.00 | 0.00 | 58 | 1012.5 |
| 20260502235416 | 51 | 143 | 6.1 | 10.4 | 0.00 | 0.00 | 0.00 | 57 | 1012.5 |
| 20260502234915 | 52 | 126 | 6.1 | 12.2 | 0.00 | 0.00 | 0.00 | 58 | 1012.5 |
| 20260502234647 | 52 | 169 | 7.0 | 14.8 | 0.00 | 0.00 | 0.00 | 57 | 1012.5 |
| 20260502233913 | 52 | 128 | 7.0 | 14.8 | 0.00 | 0.00 | 0.00 | 56 | 1012.5 |
| 20260502233413 | 53 | 150 | 7.8 | 14.8 | 0.00 | 0.00 | 0.00 | 56 | 1012.6 |
| 20260502232907 | 53 | 136 | 8.7 | 16.5 | 0.00 | 0.00 | 0.00 | 55 | 1012.6 |
| 20260502232407 | 54 | 142 | 7.8 | 16.5 | 0.00 | 0.00 | 0.00 | 53 | 1012.5 |
| 20260502231908 | 55 | 162 | 6.1 | 12.2 | 0.00 | 0.00 | 0.00 | 51 | 1012.6 |
| 20260502231408 | 57 | 153 | 4.3 | 12.2 | 0.00 | 0.00 | 0.00 | 44 | 1012.6 |
| 20260502230909 | 57 | 172 | 3.5 | 10.4 | 0.00 | 0.00 | 0.00 | 39 | 1012.5 |
| 20260502230640 | 58 | 204 | 3.5 | 7.0 | 0.00 | 0.00 | 0.00 | 38 | 1012.5 |
| 20260502225910 | 58 | 198 | 3.5 | 7.0 | 0.00 | 0.00 | 0.00 | 40 | 1012.6 |
| 20260502225401 | 58 | 183 | 3.5 | 8.7 | 0.00 | 0.00 | 0.00 | 40 | 1012.7 |
| 20260502224902 | 58 | 232 | 4.3 | 8.7 | 0.00 | 0.00 | 0.00 | 41 | 1012.8 |
| 20260502224401 | 58 | 215 | 3.5 | 7.0 | 0.00 | 0.00 | 0.00 | 40 | 1012.8 |
| 20260502224130 | 58 | 235 | 3.5 | 8.7 | 0.00 | 0.00 | 0.00 | 40 | 1012.8 |
| 20260502223359 | 58 | 191 | 4.3 | 10.4 | 0.00 | 0.00 | 0.00 | 39 | 1012.9 |
| 20260502222900 | 58 | 193 | 4.3 | 10.4 | 0.00 | 0.00 | 0.00 | 39 | 1012.9 |
| 20260502222356 | 59 | 192 | 3.5 | 8.7 | 0.00 | 0.00 | 0.00 | 38 | 1012.9 |
| 20260502221856 | 59 | 202 | 3.5 | 7.8 | 0.00 | 0.00 | 0.00 | 40 | 1013.0 |
| 20260502221353 | 59 | 193 | 3.5 | 8.7 | 0.00 | 0.00 | 0.00 | 39 | 1013.0 |
| 20260502220854 | 59 | 192 | 3.5 | 8.7 | 0.00 | 0.00 | 0.00 | 39 | 1013.0 |
| 20260502220353 | 59 | 201 | 2.6 | 6.1 | 0.00 | 0.00 | 0.00 | 40 | 1013.1 |
| 20260502215854 | 59 | 271 | 2.6 | 8.7 | 0.00 | 0.00 | 0.00 | 39 | 1013.1 |
| 20260502215349 | 59 | 184 | 2.6 | 8.7 | 0.00 | 0.00 | 0.00 | 38 | 1013.1 |
| 20260502214845 | 59 | 208 | 2.6 | 7.0 | 0.00 | 0.00 | 0.00 | 39 | 1013.2 |
| 20260502214345 | 59 | 190 | 2.6 | 7.0 | 0.00 | 0.00 | 0.00 | 40 | 1013.3 |
| 20260502213845 | 58 | 219 | 1.7 | 6.1 | 0.00 | 0.00 | 0.00 | 40 | 1013.3 |
| 20260502213351 | 58 | 307 | 1.7 | 6.1 | 0.00 | 0.00 | 0.00 | 37 | 1013.4 |
| 20260502212846 | 58 | 188 | 1.7 | 6.1 | 0.00 | 0.00 | 0.00 | 39 | 1013.4 |
| 20260502212340 | 58 | 277 | 4.3 | 16.5 | 0.00 | 0.00 | 0.00 | 38 | 1013.5 |
| 20260502211839 | 57 | 297 | 6.1 | 16.5 | 0.00 | 0.00 | 0.00 | 43 | 1013.6 |
| 20260502211339 | 58 | 113 | 4.3 | 10.4 | 0.00 | 0.00 | 0.00 | 42 | 1013.6 |
| 20260502210839 | 58 | 196 | 3.5 | 10.4 | 0.00 | 0.00 | 0.00 | 42 | 1013.6 |
| 20260502210340 | 58 | 174 | 1.7 | 7.0 | 0.00 | 0.00 | 0.00 | 43 | 1013.7 |
| 20260502205840 | 58 | 231 | 2.6 | 7.0 | 0.00 | 0.00 | 0.00 | 40 | 1013.8 |
| 20260502205606 | 58 | 270 | 3.5 | 8.7 | 0.00 | 0.00 | 0.00 | 41 | 1013.9 |
| 20260502205104 | 58 | 214 | 3.5 | 8.7 | 0.00 | 0.00 | 0.00 | 42 | 1013.9 |
| 20260502204606 | 57 | 205 | 5.2 | 10.4 | 0.00 | 0.00 | 0.00 | 43 | 1014.0 |
| 20260502203833 | 57 | 176 | 5.2 | 10.4 | 0.00 | 0.00 | 0.00 | 40 | 1014.1 |
| 20260502203333 | 57 | 286 | 4.3 | 8.7 | 0.00 | 0.00 | 0.00 | 39 | 1014.1 |
| 20260502202834 | 57 | 219 | 3.5 | 8.7 | 0.00 | 0.00 | 0.00 | 42 | 1014.2 |
| 20260502202329 | 56 | 284 | 2.6 | 7.8 | 0.00 | 0.00 | 0.00 | 42 | 1014.3 |
| 20260502201827 | 56 | 116 | 2.6 | 7.0 | 0.00 | 0.00 | 0.00 | 41 | 1014.3 |
| 20260502201327 | 56 | 344 | 3.5 | 7.8 | 0.00 | 0.00 | 0.00 | 40 | 1014.5 |
| 20260502200827 | 56 | 184 | 3.5 | 7.8 | 0.00 | 0.00 | 0.00 | 42 | 1014.7 |
| 20260502200327 | 56 | 296 | 4.3 | 7.0 | 0.00 | 0.00 | 0.00 | 43 | 1014.7 |
| 20260502195828 | 55 | 243 | 4.3 | 9.6 | 0.00 | 0.00 | 0.00 | 44 | 1014.7 |
| 20260502195555 | 56 | 120 | 3.5 | 9.6 | 0.00 | 0.00 | 0.00 | 42 | 1014.9 |
| 20260502194826 | 56 | 221 | 2.6 | 6.1 | 0.00 | 0.00 | 0.00 | 43 | 1015.0 |
| 20260502194327 | 56 | 138 | 2.6 | 6.1 | 0.00 | 0.00 | 0.00 | 45 | 1015.1 |
| 20260502194056 | 56 | 351 | 2.6 | 6.1 | 0.00 | 0.00 | 0.00 | 40 | 1015.3 |
| 20260502193323 | 55 | 223 | 3.5 | 8.7 | 0.00 | 0.00 | 0.00 | 42 | 1015.4 |
| 20260502192822 | 55 | 198 | 3.5 | 8.7 | 0.00 | 0.00 | 0.00 | 45 | 1015.5 |
| 20260502192320 | 55 | 170 | 3.5 | 7.0 | 0.00 | 0.00 | 0.00 | 47 | 1015.5 |
| 20260502191819 | 54 | 138 | 5.2 | 10.4 | 0.00 | 0.00 | 0.00 | 43 | 1015.7 |
| 20260502191550 | 54 | 193 | 5.2 | 11.3 | 0.00 | 0.00 | 0.00 | 42 | 1015.6 |
| 20260502190821 | 55 | 213 | 4.3 | 11.3 | 0.00 | 0.00 | 0.00 | 44 | 1015.7 |
| 20260502190320 | 55 | 182 | 3.5 | 7.0 | 0.00 | 0.00 | 0.00 | 44 | 1015.7 |